Content
SEND FEEDBACK

Daily
Averages
Monthly
Summary
United States of America

LAKESIDE, CALIFORNIA


Home > North America > United States > California
Elevation: 690 feet     Latitude: 32 51N     Longitude: 116 53W

WEATHER
 
SELECT A DAY
Number of Records: 106,472;   Date Range: 1/1/95 - 7/22/14
 
SHARE

PRINT THIS DATA

[ ← Previous Day ]
WEATHER ALMANAC - JANUARY 31, 2013
[ Next Day → ]
[ °C ]   °F
Weather ElementAverageHighLow
Temperature45.9 °F73.4 °F (12:47 pm)39.2 °F (4:35 am)
Dewpoint41.1 °F42.8 °F (8:35 pm)37.4 °F (12:47 pm)
Humidity85.3 %100 % (3:35 am)27 % (12:47 pm)
Barometer30.18 in30.25 in (12:35 am)30.13 in (12:47 pm)
Wind Speed0.2 mph3.5 mph (1:35 am)
Weather ElementAverage
Visibility11.3 mi
Wind DirectionNNE (19.7 °)

Weather ElementTotal
Precipitation---
Heating Degree Days8.7 (Base 65)
Growing Degree Days6.3 (Base 50)
Averaged from 31 records on January 31, 2013
WEATHER CONDITIONS BREAKOUT
WIND DIRECTION BREAKOUT
WEATHER BY HOUR - JANUARY 31, 2013
[ °C ]   °F
Local TimeTemperatureDewpointHumidityBarometerVisibilityWind DirectionWind SpeedGust SpeedPrecipitationEventsConditions
12:35 AM44.6 °F39.2 °F81 %30.25 in10.0 miCalmClear
12:55 AM42.8 °F39.2 °F87 %30.25 in10.0 miCalmClear
1:15 AM42.8 °F39.2 °F87 %30.24 in10.0 miCalmClear
1:35 AM42.8 °F41.0 °F93 %30.23 in10.0 miNW (310°)3.5 mphClear
1:55 AM42.8 °F41.0 °F93 %30.23 in10.0 miCalmClear
2:15 AM42.8 °F41.0 °F93 %30.22 in10.0 miCalmClear
2:35 AM42.8 °F41.0 °F93 %30.21 in10.0 miCalmClear
2:55 AM42.8 °F41.0 °F93 %30.21 in10.0 miCalmClear
3:15 AM42.8 °F41.0 °F93 %30.20 in10.0 miCalmClear
3:35 AM41.0 °F41.0 °F100 %30.20 in10.0 miCalmClear
3:55 AM41.0 °F41.0 °F100 %30.20 in10.0 miCalmClear
4:15 AM41.0 °F41.0 °F100 %30.19 in10.0 miCalmClear
4:35 AM39.2 °F39.2 °F100 %30.19 in10.0 miCalmClear
4:55 AM39.2 °F39.2 °F100 %30.19 in10.0 miCalmClear
5:15 AM39.2 °F39.2 °F100 %30.19 in10.0 miCalmClear
6:47 AM39.2 °F39.2 °F100 %30.19 in20.0 miCalmPartly Cloudy
7:47 AM41.0 °F41.0 °F100 %30.21 in20.0 miCalmMostly Cloudy
8:47 AM46.4 °F41.0 °F81 %30.23 in20.0 miCalmScattered Clouds
12:47 PM73.4 °F37.4 °F27 %30.13 in20.0 miCalmMostly Cloudy
8:15 PM53.6 °F41.0 °F62 %30.15 in10.0 miCalmClear
8:35 PM53.6 °F42.8 °F67 %30.15 in10.0 miCalmClear
8:55 PM51.8 °F42.8 °F71 %30.15 in10.0 miCalmClear
9:15 PM51.8 °F42.8 °F71 %30.15 in10.0 miCalmClear
9:35 PM50.0 °F42.8 °F76 %30.15 in10.0 miCalmClear
9:55 PM50.0 °F42.8 °F76 %30.14 in10.0 miWNW (300°)3.5 mphClear
10:15 PM50.0 °F42.8 °F76 %30.14 in10.0 miCalmClear
10:35 PM48.2 °F42.8 °F82 %30.14 in10.0 miCalmClear
10:55 PM48.2 °F42.8 °F82 %30.15 in10.0 miCalmClear
11:15 PM46.4 °F42.8 °F87 %30.14 in10.0 miCalmClear
11:35 PM46.4 °F42.8 °F87 %30.14 in10.0 miCalmClear
11:55 PM46.4 °F42.8 °F87 %30.15 in10.0 miCalmClear
Hourly data recorded from KSEE, located miles away from Lakeside, California







STORIES FROM OUR PARTNERS